Orbital Elements at Epoch 2459200.5 (2020-Dec-17.0) TDB
Reference: JPL 23 (heliocentric ecliptic J2000)
Element | Value | Uncertainty (1-sigma) | Units |
e | .2104155703916796 | 4.5775e-08 | |
a | 3.128716507004596 | 1.7716e-08 | au |
q | 2.47038583858936 | 1.4628e-07 | au |
i | 11.13305813100154 | 5.8082e-06 | deg |
node | 16.46466871375626 | 1.9539e-05 | deg |
peri | 232.4747026623002 | 2.3258e-05 | deg |
M | 22.21251353554197 | 1.071e-05 | deg |
tp | 2459075.778032915815 (2020-Aug-14.27803292) | 6.0304e-05 | TDB |
period | 2021.378988850719 5.53 | 1.7168e-05 4.7e-08 | d yr |
n | .1780962412222769 | 1.5126e-09 | deg/d |
Q | 3.787047175419832 | 2.1443e-08 | au |
|
| | Orbit Determination Parameters
Additional Information
|